sat.trackr.live / text

‹ back to catalog

STARLINK-3329

NORAD 50827 · 2022-001AA

PAYLOAD ACTIVE UNKNOWN

§ Identity

Operator
Country
US
Launch date
2022-01-06
Launch site
AFETR
Launch vehicle
Mass (kg)
RCS (m²)

Purposes: comms

External: N2YO · Heavens-Above · Gunter

§ Orbital elements

Epoch: 2026-05-25T03:11:07.631808Z

Period
95.44 min
Inclination
53.2108°
Eccentricity
0.0001155
Mean motion
15.08839889 rev/d
Perigee alt
538.9 km
Apogee alt
540.5 km
Semi-major
6,917.9 km
B*
-1.5498e-5
RAAN
185.9561°
Arg perigee
79.4413°
Mean anomaly
280.6709°
Rev number
24,194

§ Raw data

STARLINK-33291 50827U 22001AA  26145.13272722 -.00000534  00000+0 -15498-4 0  99952 50827  53.2108 185.9561 0001155  79.4413 280.6709 15.08839889241949

JSON: /api/v1/satellites/50827 · /tle

For live sub-satellite position, see the globe view (requires WebGL).

§ Visibility from observer

Set your observer location to see the next 7 days of passes ≥ 10°. The values pass through the URL so the page stays shareable.

No JS? Fill the form by hand. The geolocation button needs JavaScript.